sat.trackr.live / text

‹ back to catalog

STARLINK-6235

NORAD 57094 · 2023-088AY

PAYLOAD ACTIVE UNKNOWN

§ Identity

Operator
Country
US
Launch date
2023-06-22
Launch site
AFWTR
Launch vehicle
Mass (kg)
RCS (m²)

Purposes: comms

External: N2YO · Heavens-Above · Gunter

§ Orbital elements

Epoch: 2026-05-25T00:23:36.610944Z

Period
94.27 min
Inclination
43.0037°
Eccentricity
0.0001186
Mean motion
15.27566171 rev/d
Perigee alt
482.3 km
Apogee alt
483.9 km
Semi-major
6,861.2 km
B*
-5.7133e-5
RAAN
25.0522°
Arg perigee
276.5075°
Mean anomaly
83.5642°
Rev number
16,217

§ Raw data

STARLINK-62351 57094U 23088AY  26145.01639596 -.00001833  00000+0 -57133-4 0  99922 57094  43.0037  25.0522 0001186 276.5075  83.5642 15.27566171162174

JSON: /api/v1/satellites/57094 · /tle

For live sub-satellite position, see the globe view (requires WebGL).

§ Visibility from observer

Set your observer location to see the next 7 days of passes ≥ 10°. The values pass through the URL so the page stays shareable.

No JS? Fill the form by hand. The geolocation button needs JavaScript.